ATLAS D DEB, 2337

Orbit data source: Space-Track

ATLAS D DEB, 2337 is space debris in LEO originally from a launch on Thu, 14 Jul 1966 UTC launched from the Air Force Western Test Range (AFWTR). Debris objects in space refer to the collection of defunct objects orbiting the Earth. Examples of debris include non-operational satellites, rocket bodies, and fragments generated from explosions, collisions, or faulty payload assembly.

Loading next visibility...
Identifier
2337, 1966-063E
Orbit
LEO
Country
Flag of USUS
Related business
Manufacturer
Unknown
Mission
Spacecraft
Bus & Motor
Unknown
Mass
9 kg wet, 9 kg dry
Launch date (UTC)
1966-07-14 (59 years ago)
Launch vehicle
Unknown
Launch site
Air Force Western Test Range (AFWTR)
Object type
Payload
Rocket body
Debris
Shape & HBR
Unknown
Radar Cross Section
Medium (>0.1 m² and <1 m²)

Expand to show TLE details & history
Last TLE update: 12 hours ago

TLE from 12 hours ago
0 ATLAS D DEB
1 02337U 66063E   25347.28089558  .00000389  00000-0  15213-3 0  9997
2 02337 144.2357   1.4290 0005462 188.8858 188.2754 13.72254452976521
Epoch: 2025-12-13T06:44Z
TLE epoch observation values (Epoch: 2025-12-13T06:44:29.378Z)
Latitude
9.94145°
Longitude
164.08684°
Altitude
993.788 km
Speed
7.355 km/s
True Right ascension
23h 09m 40s
True Declination
9° 53' 06"
Sunlit
Object was in daylight at epoch
Visualization orbit readout
Latitude
Unknown
Longitude
Unknown
Altitude
Unknown
Speed
Unknown
Apparent Right ascension
Unknown
Apparent Declination
Unknown
Sunlit
N/A
Visualization observer readout
Local Sidereal Time
17:41:30
Azimuth
Unknown
Elevation
Unknown
Doppler factor
Unknown
Orbital elements
Apogee altitude
998.435 km
Perigee altitude
990.381 km
Semi-major axis
7,372.545 km
Eccentricity
0.00055
Inclination
144.2357°
RAAN
1.429°
Arg. of periapsis
188.8858°
True anomaly
188.2664°
Mean anomaly
188.2754°
Eccentric anomaly
188.2709°
Mean motion
3.4286 °/min
Orbital period
105 mins
BSTAR
0.00015213
Loading maneuver chart data...
Computing Atmospheric mass density...
Loading historical data...
Loading historical data...
Loading historical data...
Loading historical data...
Loading historical data...
Loading historical data...
Loading historical data...

Documentation

Showing up to 5 results
|